Location: Julian California
(33.0790°N, 116.6010°W)
Time: 14:53:01
(UTC-08:00)

ARGOS - Pass Details

Date: 12 July 2018
Orbit: 820 x 835 km, 98.5° (Epoch: 12 November)

Event Time Altitude Azimuth Distance (km) Brightness Sun altitude
Exits shadow 21:06:23 18° 136° (SE) 1,933 4.4 -13.1°
Maximum altitude 21:10:04 44° 72° (ENE) 1,135 3.6 -13.7°
Drops below altitude 10° 21:15:09 10° 2° (N) 2,435 6.1 -14.6°
Sets 21:17:36 0° 356° (N) 3,369 7.0 -15.0°
